DW9177 Weather Reports


Display with metric or nautical units.
time (UTC)temp
F
wind
direction
speed
MPH
gust
MPH
rain 1hr
in
rain 24hr
in
rain mn
in
humidity
%
barometer
mb
20260901030014 75 99 0.0 0.0 0.00 0.35 0.35 72 1010.1
20260901024508 76 177 0.0 0.0 0.00 0.35 0.35 73 1009.9
20260901023010 76 173 0.0 3.0 0.00 0.35 0.35 72 1009.8
20260901021508 76 103 0.0 0.0 0.00 0.35 0.35 73 1009.6
20260901020012 76 103 0.0 0.0 0.00 0.35 0.35 73 1009.2
20260901014606 77 103 0.0 0.0 0.00 0.35 0.35 72 1008.9
20260901013007 77 105 0.0 0.0 0.00 0.35 0.35 70 1008.6
20260901011505 78 105 0.0 0.0 0.00 0.35 0.35 65 1008.6
20260901010004 79 105 0.0 0.0 0.00 0.35 0.35 62 1008.4
20260901004504 80 104 0.0 1.0 0.00 0.35 0.35 62 1008.4
20260901003004 81 128 0.0 0.0 0.00 0.35 0.35 59 1008.4
20260901001502 82 103 0.0 1.0 0.00 0.35 0.35 55 1008.4
20260901000002 82 104 1.0 4.0 0.00 0.35 0.35 55 1008.5
20260831234504 80 101 0.0 2.0 0.00 0.35 0.35 57 1008.5
20260831233001 79 91 0.0 6.0 0.00 0.35 0.35 63 1008.5
20260831231623 77 171 4.0 8.0 0.00 0.35 0.35 67 1008.6
20260831224633 75 172 1.0 8.0 0.00 0.35 0.35 74 1009.2
20260831223058 75 95 1.0 4.0 0.00 0.35 0.35 78 1009.1
20260831221608 73 99 2.0 10.0 0.00 0.35 0.35 78 1009.3
20260831220057 73 173 8.0 17.0 0.00 0.35 0.35 79 1009.6
20260831214603 71 179 7.0 13.0 0.02 0.35 0.35 79 1009.9
20260831213057 70 175 4.0 7.0 0.04 0.35 0.35 85 1010.2
20260831211607 69 171 5.0 15.0 0.06 0.35 0.35 87 1010.4
20260831210100 69 172 4.0 10.0 0.09 0.35 0.35 91 1010.8
20260831204554 69 167 3.0 9.0 0.10 0.33 0.33 92 1011.7
20260831203056 69 94 4.0 10.0 0.21 0.31 0.31 91 1012.2
20260831201557 68 175 4.0 8.0 0.22 0.28 0.28 91 1012.7
20260831200052 68 174 0.0 3.0 0.21 0.26 0.26 91 1013.3
20260831194559 68 172 1.0 3.0 0.18 0.22 0.22 90 1013.4
20260831193056 68 108 3.0 5.0 0.08 0.10 0.10 88 1013.8
20260831191551 69 123 0.0 5.0 0.05 0.07 0.07 87 1013.9
20260831190046 68 153 6.0 10.0 0.03 0.05 0.05 86 1013.1
20260831184542 69 129 5.0 19.0 0.02 0.04 0.04 86 1012.7
20260831183041 71 136 9.0 15.0 0.00 0.02 0.02 80 1012.5
20260831181539 72 146 7.0 19.0 0.00 0.02 0.02 76 1012.8
20260831180041 73 134 7.0 14.0 0.00 0.02 0.02 74 1012.0
20260831174536 75 152 6.0 16.0 0.00 0.02 0.02 72 1012.2
20260831173041 76 134 9.0 15.0 0.00 0.02 0.02 70 1012.0
20260831171532 78 143 6.0 15.0 0.00 0.02 0.02 65 1011.7
20260831170029 78 140 5.0 12.0 0.00 0.02 0.02 69 1011.3
20260831164527 79 123 5.0 14.0 0.00 0.02 0.02 67 1010.9
20260831163028 81 143 0.0 8.0 0.00 0.02 0.02 61 1010.5
20260831161524 81 179 5.0 12.0 0.00 0.02 0.02 54 1010.1
20260831160028 80 177 6.0 16.0 0.00 0.02 0.02 56 1010.0
20260831154531 80 91 4.0 12.0 0.00 0.02 0.02 58 1009.9
20260831153025 78 101 2.0 10.0 0.00 0.02 0.02 72 1010.1
20260831151527 75 108 4.0 8.0 0.00 0.02 0.02 76 1010.3
20260831150017 74 101 6.0 12.0 0.00 0.02 0.02 78 1010.2
20260831144516 74 107 3.0 8.0 0.00 0.02 0.02 79 1009.9
20260831143015 73 105 3.0 7.0 0.00 0.02 0.02 82 1009.4
20260831141515 72 104 0.0 4.0 0.00 0.02 0.02 83 1009.4
20260831140013 71 92 3.0 5.0 0.00 0.02 0.02 85 1009.4
20260831134512 70 104 0.0 6.0 0.00 0.02 0.02 87 1009.3
20260831133012 70 104 0.0 2.0 0.00 0.02 0.02 88 1009.6
20260831131511 70 105 0.0 4.0 0.01 0.02 0.02 88 1009.3
20260831130010 69 146 3.0 9.0 0.02 0.02 0.02 88 1009.4
20260831124521 69 137 2.0 12.0 0.02 0.02 0.02 88 1009.8
20260831123006 70 136 3.0 9.0 0.02 0.02 0.02 87 1009.9
20260831121503 71 134 5.0 12.0 0.01 0.01 0.01 84 1009.9
20260831120059 72 147 3.0 9.0 0.00 0.00 0.00 80 1009.7
20260831114555 73 141 5.0 16.0 0.00 0.00 0.00 78 1009.0
20260831113051 76 128 8.0 18.0 0.00 0.00 0.00 71 1008.7
20260831111547 81 134 10.0 18.0 0.00 0.00 0.00 55 1008.3
20260831110043 81 126 0.0 3.0 0.00 0.00 0.00 54 1007.5
20260831104542 81 124 0.0 1.0 0.00 0.00 0.00 54 1006.9
20260831103045 81 145 0.0 2.0 0.00 0.00 0.00 53 1006.7
20260831101541 81 98 1.0 4.0 0.00 0.00 0.00 53 1006.6
20260831100059 81 102 5.0 9.0 0.00 0.00 0.00 53 1006.4
20260831094538 81 110 1.0 5.0 0.00 0.00 0.00 56 1006.3
20260831093045 81 113 0.0 4.0 0.00 0.00 0.00 56 1006.5
20260831091538 81 91 0.0 0.0 0.00 0.00 0.00 58 1006.6
20260831090035 81 91 0.0 0.0 0.00 0.00 0.00 57 1006.5
20260831084540 81 91 0.0 0.0 0.00 0.00 0.00 55 1006.6
20260831083033 81 179 0.0 0.0 0.00 0.00 0.00 57 1006.7
20260831081536 81 102 0.0 0.0 0.00 0.00 0.00 56 1006.8
20260831080028 82 102 0.0 0.0 0.00 0.00 0.00 55 1006.9
20260831074528 83 102 0.0 0.0 0.00 0.00 0.00 54 1006.9
20260831073023 83 103 0.0 0.0 0.00 0.00 0.00 52 1006.9
20260831071520 84 103 0.0 0.0 0.00 0.00 0.00 51 1007.0
20260831070016 84 103 0.0 0.0 0.00 0.00 0.00 50 1007.1
20260831064516 85 122 0.0 0.0 0.00 0.00 0.00 50 1007.1
20260831063015 85 124 0.0 0.0 0.00 0.00 0.00 48 1007.1
20260831061515 86 126 0.0 0.0 0.00 0.00 0.00 48 1007.3
20260831060014 85 134 0.0 0.0 0.00 0.00 0.00 48 1007.3
20260831054514 85 122 0.0 0.0 0.00 0.00 0.00 49 1007.1
20260831053036 86 122 0.0 0.0 0.00 0.00 0.00 46 1007.1
20260831051513 87 125 0.0 1.0 0.00 0.00 0.00 46 1007.0
20260831050012 87 127 1.0 4.0 0.00 0.00 0.00 45 1006.8
20260831044514 87 129 1.0 6.0 0.00 0.00 0.00 45 1006.8
20260831043012 87 143 2.0 7.0 0.00 0.00 0.00 44 1006.9
20260831041511 88 138 3.0 8.0 0.00 0.00 0.00 44 1006.7
20260831040010 88 139 3.0 8.0 0.00 0.00 0.00 43 1006.5
20260831034509 88 134 4.0 12.0 0.00 0.00 0.00 43 1006.3
20260831033024 89 140 3.0 11.0 0.00 0.00 0.00 42 1006.1
20260831031509 90 135 5.0 10.0 0.00 0.00 0.00 41 1005.7